Terminal Aerodrome Forecast
Issued by NWS

Home | Current Version | Previous Version | Text Only | Print | Product List | Glossary On
Versions: 1 2 3 4 5 6 7 8 9 10 11 12 13 14 15 16 17 18 19 20 21 22 23 24 25 26 27 28 29
000
FTAK31 PAFA 221123
TAFAOM
TAF
PAOM 221123Z 2212/2312 22015G23KT 2SM -SN BR OVC005
      TEMPO 2212/2215 1SM -SN BR
     FM230200 28009KT 4SM BR SCT004 BKN015
     FM230800 26005KT P6SM SCT015 BKN035 OVC090=

USA.gov is the U.S. government's official web portal to all federal, state and local government web resources and services.